User: anonymous   Login
Location: Newark
(41.7772°N, 74.7403°W)
Time: 16:13:01
(UTC+00:00)
Language:

deb Explorer IX - Orbit

View from above orbital plane
View from above orbital plane
View from above satellite
View from above satellite

Ground track
Ground track

The orbit data is extracted from the following two-line orbital elements,

1 00085U 61004C   21136.30036876  .00000580  00000-0  14001-3 0  9992
2 00085  38.7731 121.4371 0387330 199.0051 159.5883 14.21672273978460
Epoch (UTC): 16 May 2021 07:12:31
Eccentricity: 0.0387330
inclination: 38.7731°
perigee height: 541 km
apogee height: 1098 km
right ascension of ascending node: 121.4371°
argument of perigee: 199.0051°
revolutions per day: 14.21672273
mean anomaly at epoch: 159.5883°
orbit number at epoch: 97846

The dashed part of the orbit path shows where the satellite is in the earth's shadow,  

DLR